Latest Coastal Weather Observations for Lombadina

IDW60701

Issued at 1:42 pm WST Thursday 25 December 2014 (issued every 10 minutes, with the page automatically refreshed every 10 minutes)

About coastal observations | Map of coastal stations | Coastal observations for WA | Marine services | Other Formats
Station Details ID: 503016 Name: LOMBADINA AIRSTRIP Lat: -16.52 Lon: 122.92 Height: 42.0 m
Data from the previous 72 hours. | See also: Recent months for locations in Western Australia
Date/Time
WST
Temp

°C
Wind Pressure Rain
since 9am
mm
Weather Cloud Vis
km
Sea
Height
m
Swell
Dir
 
Speed
knots
Gust
knots
hPa Trend Height
m
Period
s
Dir
25/01:30pm 33.2 WNW 8 15 1005.3 - 0.0 - Partly cloudy 10 - - - -
25/01:00pm 32.8 NW 9 17 1005.0 - 0.0 - - 10 - - - -
25/12:30pm 34.1 NW 8 14 1005.1 - 0.0 - - 10 - - - -
25/12:00pm 34.0 WNW 7 12 1005.6 - 0.0 - - 10 - - - -
25/11:30am 33.6 NW 6 11 1006.0 - 0.0 - - 10 - - - -
25/11:00am 33.8 W 5 9 1006.5 - 0.0 - Partly cloudy 10 - - - -
25/10:30am 34.1 WNW 5 11 1007.2 - 0.0 - Partly cloudy 10 - - - -
25/10:00am 33.7 WSW 3 7 1007.3 - 0.0 - - 10 - - - -
25/09:30am 32.5 WSW 4 9 1007.4 - 0.0 - - 10 - - - -
25/09:00am 32.3 WSW 5 10 1007.6 - 0.0 - - 10 - - - -
25/08:30am 32.3 WSW 5 12 1007.5 - 0.0 - Partly cloudy 10 - - - -
25/08:00am 31.7 WSW 4 9 1007.7 - 0.0 - - 10 - - - -
25/07:30am 30.8 W 5 9 1007.5 - 0.0 - - 10 - - - -
25/07:00am 30.3 CALM 0 5 1007.5 - 0.0 - - 10 - - - -
25/06:30am 28.8 CALM 0 0 1007.8 - 0.0 - - 10 - - - -
25/06:00am 27.6 CALM 0 0 1007.6 - 0.0 - Mostly clear 10 - - - -
25/05:30am 25.7 CALM 0 0 1007.5 - 0.0 - Partly cloudy 10 - - - -
25/05:00am 25.9 CALM 0 0 1007.6 - 0.0 - - 10 - - - -
25/04:30am 25.8 WSW 1 5 1007.3 - 0.0 - Partly cloudy 10 - - - -
25/04:00am 28.4 CALM 0 5 1006.9 - 0.0 - Partly cloudy 10 - - - -
25/03:30am 28.8 CALM 0 4 1007.7 - 0.0 - Partly cloudy 10 - - - -
25/03:00am 28.5 CALM 0 0 1007.6 - 0.0 - - 10 - - - -
25/02:30am 28.8 CALM 0 0 1007.5 - 0.0 - Partly cloudy 10 - - - -
25/02:00am 28.8 CALM 0 0 1007.8 - 0.0 - Partly cloudy 10 - - - -
25/01:30am 28.9 CALM 0 0 1007.8 - 0.0 - Partly cloudy 10 - - - -
25/01:00am 28.7 CALM 0 0 1007.8 - 0.0 - Partly cloudy 10 - - - -
25/12:30am 28.7 CALM 0 0 1008.1 - 0.0 - - 10 - - - -
25/12:00am 28.9 CALM 0 0 1008.0 - 0.0 - Partly cloudy 10 - - - -
 
Date/Time
WST
Temp

°C
Wind Pressure Rain
since 9am
mm
Weather Cloud Vis
km
Sea
Height
m
Swell
Dir
 
Speed
knots
Gust
knots
hPa Trend Height
m
Period
s
Dir
24/11:30pm 28.9 CALM 0 0 1008.1 - 0.0 - - 10 - - - -
24/11:00pm 29.1 CALM 0 5 1008.1 - 0.0 - - 10 - - - -
24/10:30pm 29.2 CALM 0 0 1008.3 - 0.0 - Partly cloudy 10 - - - -
24/10:00pm 29.2 CALM 0 5 1008.6 - 0.0 - Partly cloudy 10 - - - -
24/09:30pm 29.2 CALM 0 0 1008.5 - 0.0 - - 10 - - - -
24/09:00pm 29.2 CALM 0 5 1007.9 - 0.0 - - 10 - - - -
24/08:30pm 29.3 CALM 0 0 1007.8 - 0.0 - - 10 - - - -
24/08:00pm 29.3 CALM 0 0 1007.5 - 0.0 - - 10 - - - -
24/07:30pm 29.4 CALM 0 5 1007.1 - 0.0 - - 10 - - - -
24/07:00pm 29.5 WSW 1 7 1007.0 - 0.0 - - 10 - - - -
24/06:30pm 29.8 W 3 8 1007.0 - 0.0 - - 10 - - - -
24/06:00pm 30.3 W 3 9 1006.5 - 0.0 - Mostly clear 10 - - - -
24/05:30pm 31.1 W 4 10 1006.1 - 0.0 - Partly cloudy 10 - - - -
24/05:00pm 31.3 W 7 13 1006.0 - 0.0 - Partly cloudy 10 - - - -
24/04:30pm 31.5 W 7 14 1005.7 - 0.0 - Partly cloudy 10 - - - -
24/04:00pm 32.2 WNW 9 15 1005.5 - 0.0 - Partly cloudy 10 - - - -
24/03:30pm 32.7 W 7 15 1005.6 - 0.0 - Partly cloudy 10 - - - -
24/03:00pm 33.2 W 7 14 1005.7 - 0.0 - Mostly clear 10 - - - -
24/02:30pm 32.2 WNW 9 16 1006.0 - 0.0 - - 10 - - - -
24/02:00pm 33.8 WNW 8 16 1006.2 - 0.0 - - 10 - - - -
24/01:30pm 33.1 W 8 15 1006.6 - 0.0 - - 10 - - - -
24/01:00pm 33.7 W 8 13 1007.0 - 0.0 - - 10 - - - -
24/12:30pm 33.1 W 8 18 1007.5 - 0.0 - - 10 - - - -
24/12:00pm 33.8 WNW 7 13 1007.6 - 0.0 - - 10 - - - -
24/11:30am 33.1 WNW 8 14 1007.8 - 0.0 - - 10 - - - -
24/11:00am 33.1 WNW 7 14 1008.3 - 0.0 - - 10 - - - -
24/10:30am 33.9 WNW 6 11 1008.6 - 0.0 - - 10 - - - -
24/10:00am 33.3 W 6 10 1009.1 - 0.0 - Partly cloudy 10 - - - -
24/09:30am 32.9 W 4 11 1009.1 - 0.0 - Partly cloudy 10 - - - -
24/09:00am 32.9 WSW 4 11 1009.3 - 0.0 - Mostly clear 10 - - - -
24/08:30am 32.2 W 5 12 1009.1 - 0.0 - - 10 - - - -
24/08:00am 30.7 W 4 12 1009.0 - 0.0 - Partly cloudy 10 - - - -
24/07:30am 30.6 WSW 1 5 1008.9 - 0.0 - Partly cloudy 10 - - - -
24/07:00am 30.0 CALM 0 4 1009.1 - 0.0 - - 10 - - - -
24/06:30am 29.2 CALM 0 3 1008.8 - 0.0 - Partly cloudy 10 - - - -
24/06:00am 28.7 CALM 0 0 1008.3 - 0.0 - - 10 - - - -
24/05:30am 27.3 CALM 0 0 1007.7 - 0.0 - - 10 - - - -
24/05:00am 26.7 CALM 0 0 1007.4 - 0.0 - Partly cloudy 10 - - - -
24/04:30am 27.2 CALM 0 0 1007.1 - 0.0 - Partly cloudy 10 - - - -
24/04:00am 27.1 CALM 0 0 1006.9 - 0.0 - Partly cloudy 10 - - - -
24/03:30am 26.6 CALM 0 0 1007.0 - 0.0 - - 10 - - - -
24/03:00am 26.2 CALM 0 0 1007.0 - 0.0 - - 10 - - - -
24/02:30am 26.1 CALM 0 0 1007.2 - 0.0 - - 10 - - - -
24/02:00am 26.6 CALM 0 0 1007.3 - 0.0 - - 10 - - - -
24/01:30am 26.5 CALM 0 0 1007.3 - 0.0 - - 10 - - - -
24/01:00am 27.3 CALM 0 0 1007.4 - 0.0 - - 10 - - - -
24/12:30am 26.9 CALM 0 0 1007.7 - 0.0 - - 10 - - - -
24/12:00am 27.1 CALM 0 0 1008.1 - 0.0 - - 10 - - - -
 
Date/Time
WST
Temp

°C
Wind Pressure Rain
since 9am
mm
Weather Cloud Vis
km
Sea
Height
m
Swell
Dir
 
Speed
knots
Gust
knots
hPa Trend Height
m
Period
s
Dir
23/11:30pm 27.1 CALM 0 0 1008.6 - 0.0 - - 10 - - - -
23/11:00pm 27.6 CALM 0 0 1008.9 - 0.0 - Partly cloudy 10 - - - -
23/10:30pm 28.1 CALM 0 0 1008.7 - 0.0 - - 10 - - - -
23/10:00pm 28.4 CALM 0 0 1008.6 - 0.0 - - 10 - - - -
23/09:30pm 28.6 CALM 0 0 1008.4 - 0.0 - - 10 - - - -
23/09:00pm 28.7 CALM 0 0 1008.4 - 0.0 - - 10 - - - -
23/08:30pm 29.0 CALM 0 0 1007.9 - 0.0 - - 10 - - - -
23/08:00pm 29.2 CALM 0 5 1007.8 - 0.0 - - 10 - - - -
23/07:30pm 29.2 CALM 0 4 1007.3 - 0.0 - - 10 - - - -
23/07:00pm 29.2 CALM 0 0 1006.5 - 0.0 - - 10 - - - -
23/06:30pm 29.5 WSW 1 8 1006.1 - 0.0 - - 10 - - - -
23/06:00pm 30.1 W 3 9 1006.2 - 0.0 - - 10 - - - -
23/05:30pm 30.7 W 4 9 1006.2 - 0.0 - - 10 - - - -
23/05:00pm 30.9 W 7 12 1006.2 - 0.0 - - 10 - - - -
23/04:30pm 31.4 WNW 7 15 1005.5 - 0.0 - - 10 - - - -
23/04:00pm 32.0 WNW 8 14 1005.8 - 0.0 - Partly cloudy 10 - - - -
23/03:30pm 32.9 WNW 8 15 1005.7 - 0.0 - Partly cloudy 10 - - - -
23/03:00pm 32.6 W 6 12 1006.3 - 0.0 - Mostly clear 10 - - - -
23/02:30pm 31.9 SW 5 12 1007.0 - 0.0 - Cloudy 10 - - - -
23/02:00pm 31.6 W 2 11 1006.8 - 0.0 - Cloudy 10 - - - -
23/01:30pm 32.4 SW 2 7 1007.1 - 0.0 - Partly cloudy 10 - - - -
23/01:00pm 33.0 WSW 3 9 1007.2 - 0.0 - Partly cloudy 10 - - - -
23/12:30pm 33.8 W 5 12 1007.3 - 0.0 - Partly cloudy 10 - - - -
23/12:00pm 33.8 NW 6 11 1007.7 - 0.0 - Partly cloudy 10 - - - -
23/11:30am 32.4 NW 5 13 1008.0 - 0.0 - Partly cloudy 10 - - - -
23/11:00am 31.9 WNW 4 11 1008.5 - 0.0 - Partly cloudy 10 - - - -
23/10:30am 31.9 W 4 9 1008.5 - 0.0 - Partly cloudy 10 - - - -
23/10:00am 33.4 WNW 6 12 1008.6 - 0.0 - Partly cloudy 10 - - - -
23/09:30am 33.9 WNW 3 13 1008.9 - 0.0 - Partly cloudy 10 - - - -
23/09:00am 32.9 SW 3 6 1008.9 - 1.4 - Mostly clear 10 - - - -
23/08:30am 31.8 SW 3 6 1008.9 - 1.4 - - 10 - - - -
23/08:00am 31.2 SW 4 6 1008.9 - 1.4 - Partly cloudy 10 - - - -
23/07:30am 30.5 SW 2 7 1009.0 - 1.4 - - 10 - - - -
23/07:00am 29.8 CALM 0 6 1008.9 - 1.4 - - 10 - - - -
23/06:30am 28.7 CALM 0 6 1008.7 - 1.4 - - 10 - - - -
23/06:00am 27.6 CALM 0 0 1008.5 - 1.4 - - 10 - - - -
23/05:30am 26.5 CALM 0 0 1008.0 - 1.4 - - 10 - - - -
23/05:00am 26.4 CALM 0 0 1007.7 - 1.4 - - 10 - - - -
23/04:30am 26.5 CALM 0 0 1007.4 - 1.4 - - 10 - - - -
23/04:00am 26.2 CALM 0 0 1007.1 - 1.4 - - 10 - - - -
23/03:30am 26.2 CALM 0 0 1007.2 - 1.4 - - 10 - - - -
23/03:00am 26.4 CALM 0 0 1007.0 - 1.4 - - 10 - - - -
23/02:30am 26.7 CALM 0 0 1006.9 - 1.4 - - 10 - - - -
23/02:00am 27.0 CALM 0 0 1006.9 - 1.4 - - 10 - - - -
23/01:30am 27.4 CALM 0 0 1007.0 - 1.4 - - 10 - - - -
23/01:00am 27.1 CALM 0 0 1006.9 - 1.4 - - 10 - - - -
23/12:30am 27.7 CALM 0 0 1006.8 - 1.4 - - 10 - - - -
23/12:00am 27.3 CALM 0 0 1006.9 - 1.4 - - 10 - - - -
 
Date/Time
WST
Temp

°C
Wind Pressure Rain
since 9am
mm
Weather Cloud Vis
km
Sea
Height
m
Swell
Dir
 
Speed
knots
Gust
knots
hPa Trend Height
m
Period
s
Dir
22/11:30pm 27.8 CALM 0 0 1007.1 - 1.4 - - 10 - - - -
22/11:00pm 28.0 CALM 0 0 1007.5 - 1.4 - - 10 - - - -
22/10:30pm 28.3 CALM 0 0 1007.7 - 1.4 - - 10 - - - -
22/10:00pm 28.3 CALM 0 0 1007.8 - 1.4 - - 10 - - - -
22/09:30pm 28.7 CALM 0 0 1007.5 - 1.4 - - 10 - - - -
22/09:00pm 29.1 CALM 0 0 1007.4 - 1.4 - - 10 - - - -
22/08:30pm 29.3 CALM 0 0 1007.2 - 1.4 - - 10 - - - -
22/08:00pm 29.1 CALM 0 0 1006.9 - 1.4 - - 10 - - - -
22/07:30pm 29.3 CALM 0 0 1006.6 - 1.4 - - 10 - - - -
22/07:00pm 29.5 CALM 0 0 1006.4 - 1.4 - - 10 - - - -
22/06:30pm 29.7 W 2 5 1006.0 - 1.4 - - 10 - - - -
22/06:00pm 30.1 W 4 10 1005.7 - 1.4 - Mostly clear 10 - - - -
22/05:30pm 30.8 WNW 4 9 1005.3 - 1.4 - - 10 - - - -
22/05:00pm 31.3 WNW 4 9 1005.3 - 1.4 - - 10 - - - -
22/04:30pm 31.3 WNW 4 9 1005.1 - 1.4 - - 10 - - - -
22/04:00pm 31.8 NW 5 9 1005.1 - 1.4 - - 10 - - - -
22/03:30pm 31.8 NW 5 12 1005.7 - 1.4 - - 10 - - - -
22/03:00pm 32.6 NW 6 11 1005.4 - 1.4 - - 10 - - - -
22/02:30pm 32.4 NW 6 10 1005.6 - 1.4 - - 10 - - - -
22/02:00pm 33.2 NW 5 11 1005.9 - 1.4 - - 10 - - - -

Other Formats:

Comma delimited format used in spreadsheet applications
http://www.bom.gov.au/fwo/IDW60701/IDW60701.99206.axf

JavaScript Object Notation format (JSON) in row-major order
http://www.bom.gov.au/fwo/IDW60701/IDW60701.99206.json